• In Hungary
  • List of Countries
  • For 7 days
  • Water Temperature
  • Satellite Maps
  • Weather Map
  • News
  • Weather Widgets
  • user-avatar
    Login

    Hourly Weather Novokulnevo

    Today, 24 June, Sunday

    Time Temperature Precipitation Wind Pressure Humidity
    00:00 +18°C° 0.2 mm 2 mps 735 mmHg 97%
    01:00 +18°C° 0.2 mm 2 mps 735 mmHg 97%
    02:00 +19°C° 0 mm 1 mps 735 mmHg 97%
    03:00 +18°C° 0.4 mm 2 mps 736 mmHg 97%
    04:00 +17°C° 0.4 mm 3 mps 736 mmHg 97%
    05:00 +17°C° 0.4 mm 4 mps 736 mmHg 96%
    06:00 +15°C° 0.8 mm 4 mps 736 mmHg 96%
    07:00 +14°C° 0.8 mm 4 mps 737 mmHg 95%
    08:00 +14°C° 0 mm 4 mps 737 mmHg 95%
    09:00 +14°C° 0.4 mm 4 mps 738 mmHg 92%
    10:00 +14°C° 0.4 mm 4 mps 738 mmHg 90%
    11:00 +14°C° 0.4 mm 4 mps 739 mmHg 87%
    12:00 +14°C° 0 mm 4 mps 739 mmHg 82%
    13:00 +15°C° 0 mm 4 mps 740 mmHg 78%
    14:00 +16°C° 0 mm 3 mps 740 mmHg 73%
    15:00 +17°C° 0 mm 3 mps 741 mmHg 73%
    16:00 +17°C° 0 mm 3 mps 741 mmHg 72%
    17:00 +17°C° 0 mm 3 mps 741 mmHg 71%
    18:00 +16°C° 0 mm 3 mps 741 mmHg 76%
    19:00 +15°C° 0 mm 2 mps 741 mmHg 82%
    20:00 +13°C° 0 mm 2 mps 741 mmHg 87%
    21:00 +13°C° 0 mm 2 mps 742 mmHg 90%
    22:00 +12°C° 0 mm 2 mps 742 mmHg 92%
    23:00 +10°C° 0 mm 2 mps 742 mmHg 94%

    Tomorrow, 25 June, Monday

    Time Temperature Precipitation Wind Pressure Humidity
    00:00 +10°C° 0 mm 2 mps 743 mmHg 95%
    01:00 +10°C° 0 mm 2 mps 743 mmHg 95%
    02:00 +9°C° 0 mm 2 mps 743 mmHg 95%
    03:00 +10°C° 0 mm 2 mps 744 mmHg 94%
    04:00 +10°C° 0 mm 2 mps 744 mmHg 92%
    05:00 +12°C° 0 mm 2 mps 744 mmHg 91%
    06:00 +14°C° 0 mm 2 mps 744 mmHg 83%
    07:00 +16°C° 0 mm 2 mps 745 mmHg 76%
    08:00 +17°C° 0 mm 2 mps 745 mmHg 69%
    09:00 +19°C° 0 mm 2 mps 745 mmHg 65%
    10:00 +20°C° 0 mm 2 mps 745 mmHg 61%
    11:00 +21°C° 0 mm 3 mps 745 mmHg 56%
    12:00 +21°C° 0.1 mm 3 mps 745 mmHg 56%
    13:00 +21°C° 0.1 mm 3 mps 745 mmHg 55%
    14:00 +22°C° 0.1 mm 3 mps 745 mmHg 54%
    15:00 +22°C° 0.1 mm 3 mps 746 mmHg 58%
    16:00 +21°C° 0.1 mm 3 mps 746 mmHg 61%
    17:00 +21°C° 0.1 mm 3 mps 746 mmHg 64%
    18:00 +19°C° 0 mm 2 mps 746 mmHg 71%
    19:00 +18°C° 0 mm 2 mps 746 mmHg 78%
    20:00 +16°C° 0 mm 1 mps 746 mmHg 85%
    21:00 +15°C° 0 mm 1 mps 746 mmHg 86%
    22:00 +14°C° 0 mm 1 mps 747 mmHg 88%
    23:00 +14°C° 0 mm 1 mps 747 mmHg 90%

    Day after tomorrow, 26 June, Tuesday

    Time Temperature Precipitation Wind Pressure Humidity
    00:00 +13°C° 0 mm 1 mps 747 mmHg 90%
    01:00 +13°C° 0 mm 1 mps 747 mmHg 91%
    02:00 +11°C° 0 mm 0 mps 747 mmHg 91%
    03:00 +12°C° 0 mm 0 mps 747 mmHg 90%
    04:00 +13°C° 0 mm 0 mps 747 mmHg 89%
    05:00 +14°C° 0 mm 0 mps 748 mmHg 88%
    06:00 +15°C° 0 mm 0 mps 748 mmHg 82%
    07:00 +19°C° 0 mm 1 mps 748 mmHg 75%
    08:00 +21°C° 0 mm 1 mps 748 mmHg 69%
    09:00 +21°C° 0 mm 2 mps 748 mmHg 64%
    10:00 +23°C° 0 mm 2 mps 748 mmHg 60%
    11:00 +24°C° 0 mm 2 mps 748 mmHg 55%
    12:00 +24°C° 0 mm 2 mps 748 mmHg 55%
    13:00 +25°C° 0 mm 2 mps 747 mmHg 54%
    14:00 +25°C° 0 mm 2 mps 747 mmHg 54%
    15:00 +25°C° 0 mm 3 mps 747 mmHg 57%
    16:00 +25°C° 0 mm 3 mps 747 mmHg 60%
    17:00 +24°C° 0 mm 3 mps 747 mmHg 63%
    18:00 +21°C° 0 mm 2 mps 747 mmHg 69%
    19:00 +20°C° 0 mm 2 mps 747 mmHg 76%
    20:00 +18°C° 0 mm 2 mps 747 mmHg 82%
    21:00 +17°C° 0 mm 2 mps 747 mmHg 84%
    22:00 +16°C° 0 mm 2 mps 746 mmHg 86%
    23:00 +16°C° 0 mm 2 mps 746 mmHg 88%

    27 June, Wednesday

    Time Temperature Precipitation Wind Pressure Humidity
    00:00 +14°C° 0 mm 3 mps 746 mmHg 87%
    01:00 +14°C° 0 mm 3 mps 746 mmHg 86%
    02:00 +14°C° 0 mm 3 mps 746 mmHg 86%
    03:00 +14°C° 0 mm 3 mps 746 mmHg 85%
    04:00 +16°C° 0 mm 3 mps 746 mmHg 84%
    05:00 +15°C° 0 mm 4 mps 746 mmHg 83%
    06:00 +18°C° 0 mm 4 mps 746 mmHg 79%
    07:00 +20°C° 0 mm 5 mps 746 mmHg 74%
    08:00 +22°C° 0 mm 5 mps 746 mmHg 70%
    09:00 +23°C° 0 mm 6 mps 746 mmHg 67%
    10:00 +24°C° 0 mm 6 mps 746 mmHg 64%
    11:00 +26°C° 0 mm 6 mps 746 mmHg 61%
    12:00 +26°C° 0 mm 6 mps 746 mmHg 62%
    13:00 +26°C° 0 mm 6 mps 746 mmHg 63%
    14:00 +26°C° 0 mm 6 mps 746 mmHg 65%
    15:00 +24°C° 0 mm 6 mps 746 mmHg 68%
    16:00 +25°C° 0 mm 5 mps 746 mmHg 70%
    17:00 +23°C° 0 mm 5 mps 746 mmHg 73%
    18:00 +22°C° 0 mm 4 mps 746 mmHg 78%
    19:00 +21°C° 0 mm 4 mps 746 mmHg 82%
    20:00 +20°C° 0 mm 3 mps 746 mmHg 87%
    21:00 +20°C° 0 mm 4 mps 746 mmHg 86%
    22:00 +20°C° 0 mm 4 mps 746 mmHg 85%
    23:00 +20°C° 0 mm 5 mps 746 mmHg 84%

    28 June, Thursday

    Time Temperature Precipitation Wind Pressure Humidity
    00:00 +19°C° 0 mm 4 mps 746 mmHg 85%
    01:00 +19°C° 0 mm 4 mps 746 mmHg 86%
    02:00 +19°C° 0 mm 4 mps 746 mmHg 86%
    03:00 +19°C° 0 mm 5 mps 746 mmHg 85%
    04:00 +19°C° 0 mm 5 mps 746 mmHg 84%
    05:00 +19°C° 0 mm 5 mps 746 mmHg 82%
    06:00 +20°C° 0 mm 5 mps 746 mmHg 77%
    07:00 +22°C° 0 mm 6 mps 746 mmHg 72%
    08:00 +23°C° 0 mm 6 mps 746 mmHg 67%
    09:00 +24°C° 0 mm 6 mps 746 mmHg 63%
    10:00 +26°C° 0 mm 6 mps 746 mmHg 60%
    11:00 +27°C° 0 mm 6 mps 746 mmHg 56%
    12:00 +28°C° 0 mm 6 mps 745 mmHg 56%
    13:00 +28°C° 0 mm 6 mps 745 mmHg 56%
    14:00 +28°C° 0 mm 6 mps 745 mmHg 56%
    15:00 +28°C° 0 mm 5 mps 745 mmHg 59%
    16:00 +28°C° 0 mm 5 mps 745 mmHg 63%
    17:00 +27°C° 0 mm 5 mps 744 mmHg 66%
    18:00 +26°C° 0 mm 4 mps 744 mmHg 71%
    19:00 +23°C° 0 mm 4 mps 744 mmHg 76%
    20:00 +22°C° 0 mm 4 mps 744 mmHg 81%
    21:00 +22°C° 0 mm 4 mps 744 mmHg 81%
    22:00 +21°C° 0 mm 4 mps 744 mmHg 82%
    23:00 +21°C° 0 mm 4 mps 743 mmHg 82%

    29 June, Friday

    Time Temperature Precipitation Wind Pressure Humidity
    00:00 +20°C° 0 mm 4 mps 743 mmHg 84%
    01:00 +20°C° 0 mm 4 mps 743 mmHg 86%
    02:00 +19°C° 0 mm 4 mps 743 mmHg 89%
    03:00 +19°C° 0 mm 4 mps 743 mmHg 88%
    04:00 +19°C° 0 mm 4 mps 743 mmHg 87%
    05:00 +19°C° 0 mm 4 mps 743 mmHg 86%
    06:00 +21°C° 0 mm 5 mps 743 mmHg 81%
    07:00 +22°C° 0 mm 5 mps 743 mmHg 75%
    08:00 +24°C° 0 mm 6 mps 743 mmHg 70%
    09:00 +26°C° 0 mm 6 mps 742 mmHg 68%
    10:00 +27°C° 0 mm 6 mps 742 mmHg 66%
    11:00 +28°C° 0 mm 6 mps 742 mmHg 64%
    12:00 +29°C° 0 mm 6 mps 741 mmHg 64%
    13:00 +29°C° 0 mm 6 mps 741 mmHg 64%
    14:00 +30°C° 0 mm 6 mps 741 mmHg 64%
    15:00 +29°C° 0 mm 6 mps 740 mmHg 66%
    16:00 +29°C° 0 mm 6 mps 740 mmHg 69%
    17:00 +29°C° 0 mm 6 mps 739 mmHg 71%
    18:00 +27°C° 1.3 mm 5 mps 739 mmHg 76%
    19:00 +26°C° 1.3 mm 5 mps 740 mmHg 80%
    20:00 +23°C° 1.3 mm 5 mps 740 mmHg 84%
    21:00 +23°C° 1 mm 5 mps 739 mmHg 87%
    22:00 +22°C° 1 mm 5 mps 739 mmHg 90%
    23:00 +21°C° 1 mm 4 mps 739 mmHg 92%
    Show more